Regional Weather Roundup
Issued by NWS Grand Forks, ND

Home | Current Version | Previous Version | Text Only | Print | Product List | Glossary Off
Versions: 1 2 3 4 5 6 7 8 9 10 11 12 13 14 15 16 17 18 19 20 21 22 23 24 25 26 27 28 29 30 31 32 33 34 35 36 37 38 39 40 41 42 43 44 45 46 47 48 49 50

000
ASUS43 KFGF 051131
RWRFGF
PRAIRIE TO PINES  WEATHER ROUNDUP
NATIONAL WEATHER SERVICE EASTERN NORTH DAKOTA/GRAND FORKS ND
600 AM CDT SUN JUL 05 2015

 **SATELLITE DATA USED TO AUGMENT SKY COVER AT AUTOMATED STATIONS**
 *****  WEATHER ACROSS EASTERN NORTH DAKOTA  *****

CITY           SKY/WX    TMP DP  RH WIND       PRES   REMARKS
GRAND FORKS    MOCLDY    69  66  90 SE14      29.75R
GRAND FRKS AFB MOCLDY    67  65  94 SE15      29.75S
GRAND FRKS NWS   N/A     68 N/A N/A SE14        N/A
DEVILS LAKE    MOCLDY    66  61  82 NE6       29.73S
FARGO          PTCLDY    71  64  78 SE13      29.76R
WAHPETON ARPT  PTSUNNY   68  63  83 SE10      29.78F
$$

 ***** WEATHER ACROSS CENTRAL AND WESTERN NORTH DAKOTA  *****

CITY           SKY/WX    TMP DP  RH WIND       PRES   REMARKS
BISMARCK       MOCLDY    67  66  97 E8        29.70S FOG
MINOT          CLOUDY    63  60  90 N12       29.78R
JAMESTOWN      PTCLDY    68  65  90 S9        29.73S
MINOT AFB      CLOUDY    63  63 100 N9        29.78R
GARRISON         N/A     66  63  90 N9        29.75R
WILLISTON      LGT RAIN  65  62  90 N9        29.90F FOG
DICKINSON      TSTM      64  61  90 N18G26    29.78R
HETTINGER      PTCLDY    61  60  97 S3        29.74S FOG
$$

 *****  OTHER AIRPORT OBSERVATIONS IN OUR AREA  *****

CITY           SKY/WX    TMP DP  RH WIND       PRES   REMARKS
WALHALLA       FAIR      64  64 100 MISG      29.77S FOG
GRAFTON AIRPOR FAIR      63  63 100 S5        29.75R
VALLEY CITY AR FAIR      68  68 100 S6        29.76R
CANDO          PTSUNNY   63  63 100 NE9       29.77S
CAVALIER APRT  FAIR      64  64 100 N3        29.76R
GWINNER          N/A     70  68  94 S7        29.75F
ROLLA          FOG       63  63 100 N13G20    29.81R VSB 3/4
 ***** THE ABOVE OBSERVATIONS ARE NON NWS ARE NOT QUALITY
       CONTROLLED AND MAY MIS-REPORT RAIN FOR SNOW...
$$

  *****  WEATHER ACROSS NORTHERN MINNESOTA  *****

CITY           SKY/WX    TMP DP  RH WIND       PRES   REMARKS
FLAG ISLAND    NOT AVBL
WARROAD        MOCLDY    63  59  88 S7        29.77S
ROSEAU         MOCLDY    63  57  82 SE6       29.76F
HALLOCK        MOCLDY    64  63  94 CALM      29.75R
THF RVR FALLS  CLOUDY    64  63  94 S10       29.78F
BAUDETTE       CLOUDY    65  62  90 S12       29.77F
WASKISH        CLOUDY    64  63  94 E3        29.79F
CROOKSTON      CLOUDY    66  66 100 S17       29.80R
$$
  *****  WEATHER ACROSS CENTRAL AND WEST MINNESOTA  *****

CITY           SKY/WX    TMP DP  RH WIND       PRES   REMARKS
FOSSTON        LGT RAIN  63  61  94 SE8       29.85R
BEMIDJI        CLOUDY    64  63  96 S10       29.84S
PARK RAPIDS    CLOUDY    69  63  81 E7        29.87F HAZE
ELBOW LAKE     FAIR      66  63  89 SE10      29.83R
WADENA         CLOUDY    64  61  88 S7        29.86R FOG
DETROIT LAKES  MOCLDY    68  63  83 E5        29.86R HAZE
MOORHEAD       PTCLDY    70  64  83 SE8       29.79R
FERGUS FALLS   MOCLDY    68  63  83 SE14      29.81R
MORRIS MN      MOCLDY    66  63  88 SE13      29.81F FOG
STAPLES        CLOUDY    64  61  88 S6        29.87S FOG
$$
  *****  WEATHER ELSEWHERE ACROSS MINNESOTA  *****

CITY           SKY/WX    TMP DP  RH WIND       PRES   REMARKS
DULUTH         FAIR      57  53  86 SE6       29.93S
INTRNTL FALLS  CLOUDY    64  62  93 CALM      29.79F
ELY            CLOUDY    64  61  88 SW6       29.89R
CLOQUET        MOCLDY    55  54  94 SE3       29.94R FOG
WHEATON        MOCLDY    64  63  94 SE9       29.80S
BRAINERD       CLOUDY    64  61  90 S6        29.89S FOG
HIBBING        CLOUDY    56  54  93 CALM      29.90S FOG
ALEXANDRIA     MOCLDY    65  61  87 SE9       29.88S
SAINT CLOUD    MOCLDY    61  60  97 SE7       29.91S FOG
MINNEAPOLIS    PTCLDY    67  59  75 S8        29.95R
$$

  *****  WEATHER ACROSS SOUTH DAKOTA  *****

CITY           SKY/WX    TMP DP  RH WIND       PRES   REMARKS
SIOUX FALLS    CLOUDY    69  63  81 S10       29.90R THUNDER
BROOKINGS      CLOUDY    68  63  83 SE12      29.92F THUNDER
WATERTOWN      LGT RAIN  69  65  86 S20G28    29.78F
HURON          PTCLDY    70  66  87 SE14G23   29.78F
SISSETON         N/A     71  64  78 S9        29.75F
ABERDEEN       PTCLDY    69  64  84 MISG      29.73F
MITCHELL       PTCLDY    69  65  86 SE14      29.82R
PIERRE         CLEAR     64  62  93 NE3       29.72R
MOBRIDGE       CLEAR     70  68  93 E13       29.71R
RAPID CITY     CLEAR     65  62  90 SE5       29.78S
$$

  *****  SOME WEATHER IN NEARBY STATES *****

CITY           SKY/WX    TMP DP  RH WIND       PRES   REMARKS
GLASGOW MT     LGT RAIN  59  52  77 N12       29.94R
GREAT FALLS MT LGT RAIN  53  52  96 N10       30.10R FOG
CHEYENNE WY    PTCLDY    67  48  50 W10       30.01S
SCOTTSBLUFF NE PTCLDY    64  61  90 E3        29.87S
OMAHA NE       MOCLDY    70  63  78 S16       29.90F
DES MOINES IA  PTCLDY    65  60  84 S8        29.98R
DAVENPORT IA   CLEAR     61  58  90 S6        30.05S FOG
CHICAGO IL     CLEAR     62  58  86 CALM      30.07R FOG
EAU CLAIRE WI  CLEAR     62  58  86 SE3       29.98S
LA CROSSE WI   CLEAR     66  62  87 S8        30.01R
$$

  *****  SOME NATIONAL WEATHER *****

CITY           SKY/WX    TMP DP  RH WIND       PRES   REMARKS
LA GUARDIA NY  PTSUNNY   70  60  70 NW9       30.08R
RALEIGH NC     MOCLDY    73  69  87 S3        30.11R
ATLANTA GA     CLOUDY    70  66  88 SW7       30.13R
NEW ORLEANS LA LGT RAIN  80  75  84 CALM      30.11R
OKLAHOMA CITY  MOCLDY    72  71  97 S7        29.96R
ALBUQUERQUE NM MOCLDY    66  58  75 SE6       30.14S
SALT LAKE CITY CLOUDY    78  59  51 CALM      29.96R
LOS ANGELES CA CLOUDY    63  60  90 NW5       29.94S
BOISE ID       MOCLDY    78  46  32 NE7       29.82S
SEATTLE WA     CLEAR     68  49  50 CALM      29.81S
$$

*** WEATHER ACROSS MANITOBA...SASKATCHEWAN AND ONTARIO ***
                ***ONTARIO***

CITY           SKY/WX    TMP DP  RH WIND       PRES   REMARKS
GERALDTON      MOCLDY    55  48  76 S7        29.91R
THUNDER BAY    PTCLDY    54  54 100 N3        29.91R
SIOUX LOOKOUT  LGT RAIN  63  61  94 W3        29.84R
TORONTO        PTSUNNY   63  55  77 SW3       30.11R
BIG TROUT LK   CLEAR     63  61  94 NW7       29.66R FOG
PICKLE LAKE    CLOUDY    64  59  82 W9        29.74
DRYDEN         MOCLDY    63  61  94 S3        29.82S
KENORA         MOCLDY    63  61  94 N7        29.81R
$$
                *** MANITOBA***

CITY           SKY/WX    TMP DP  RH WIND       PRES   REMARKS
BRANDON        MOCLDY    55  55 100 N6        29.84R FOG
DAUPHIN        CLOUDY    55  54  94 W8        29.83R FOG
ISLAND LAKE    CLOUDY    59  57  94 W6        29.70R
PILOT MOUND      N/A     63  63 100 N9          N/A
THE PAS        SMOKE     57  52  82 W10       29.77R VSB 3/4
THOMPSON       CLOUDY    45  41  87 NW6       29.72R
WINNIPEG       CLOUDY    63  63 100 NW3       29.79R FOG
LYNN LAKE      LGT RAIN  43  41  93 N10       29.81R
CHURCHILL      LGT RAIN  39  39 100 NE31G38   29.67R FOG
$$
                ***SASKATCHEWAN***

CITY           SKY/WX    TMP DP  RH WIND       PRES   REMARKS
ESTEVAN        LGT RAIN  63  63 100 NW7       29.90R FOG
KINDERSLEY     PTCLDY    50  46  87 NW9       30.01S
LLOYDMINSTER   MOCLDY    52  50  93 NW10      30.01S
PRINCE ALBERT  MOCLDY    52  48  87 W7        29.90S
REGINA         CLOUDY    57  55  94 W10       29.93R FOG
YORKTON        FOG       54  52  94 NW6       29.89R VSB 1
N. BATTLEFORD  MOCLDY    52  48  87 W9        29.99S
LA RONGE       NOT AVBL
SASKATOON      PTCLDY    48  46  93 NW7       29.96S
SWIFT CURRENT  PTCLDY    52  46  82 W12       30.00S
$$
NOTE: THESE ARE AUTOMATED STATIONS WITH LIMITED QUALITY CONTROL
      "FAIR" INDICATES FEW OR NO CLOUDS BELOW 12,000 FEET WITH NO
      SIGNIFICANT WEATHER AND/OR OBSTRUCTIONS TO VISIBILITY.
      SKY/WX - SKY CONDITION AND SIGNIFICANT WEATHER.
      TMP - AIR TEMPERATURE.    DP   - DEWPOINT TEMPERATURE.
      RH  - RELATIVE HUMIDITY.  PRES - PRESSURE.
      HX  - HEAT INDEX.         WCI  - WIND CHILL INDEX.
$



USA.gov is the U.S. government's official web portal to all federal, state and local government web resources and services.